owner,sensor,date,latitude,longitude,vertical_datum,wind_speed,wind_to_direction,wind_speed_of_gust,qcFlag 
WAVCIS,ioos:station:WAVCIS:CSI15:1,2009-04-01T00:00:00Z,28.8332,-90.8320,10.0,2.63,191.0,,'11111222,11111222,99999999' 
WAVCIS,ioos:station:WAVCIS:CSI15:1,2009-04-01T01:00:00Z,28.8332,-90.8320,10.0,2.962,185.0,,'11111222,11111222,99999999' 
WAVCIS,ioos:station:WAVCIS:CSI15:1,2009-04-01T02:00:00Z,28.8332,-90.8320,10.0,3.127,215.0,,'11111222,11111222,99999999' 
WAVCIS,ioos:station:WAVCIS:CSI15:1,2009-04-01T03:00:00Z,28.8332,-90.8320,10.0,4.322,247.0,,'11111222,11111222,99999999' 
WAVCIS,ioos:station:WAVCIS:CSI15:1,2009-04-01T04:00:00Z,28.8332,-90.8320,10.0,5.928,287.0,,'11111222,11111222,99999999' 
WAVCIS,ioos:station:WAVCIS:CSI15:1,2009-04-01T05:00:00Z,28.8332,-90.8320,10.0,7.06,344.0,,'11111222,11111222,99999999' 
WAVCIS,ioos:station:WAVCIS:CSI15:1,2009-04-01T06:00:00Z,28.8332,-90.8320,10.0,8.0,354.0,,'11111222,11111222,99999999' 
WAVCIS,ioos:station:WAVCIS:CSI15:1,2009-04-01T07:00:00Z,28.8332,-90.8320,10.0,6.172,5.0,,'11111222,11111222,99999999' 
WAVCIS,ioos:station:WAVCIS:CSI15:1,2009-04-01T08:00:00Z,28.8332,-90.8320,10.0,7.33,356.0,,'11111222,11111222,99999999' 
WAVCIS,ioos:station:WAVCIS:CSI15:1,2009-04-01T09:00:00Z,28.8332,-90.8320,10.0,8.76,343.0,,'11111222,11111222,99999999' 
WAVCIS,ioos:station:WAVCIS:CSI15:1,2009-04-01T10:00:00Z,28.8332,-90.8320,10.0,10.88,345.0,,'11111222,11111222,99999999' 
WAVCIS,ioos:station:WAVCIS:CSI15:1,2009-04-01T11:00:00Z,28.8332,-90.8320,10.0,11.37,353.0,,'11111222,11111222,99999999' 
WAVCIS,ioos:station:WAVCIS:CSI15:1,2009-04-01T12:00:00Z,28.8332,-90.8320,10.0,11.94,0.0,,'11111222,11111222,99999999' 
WAVCIS,ioos:station:WAVCIS:CSI15:1,2009-04-01T13:00:00Z,28.8332,-90.8320,10.0,11.69,12.0,,'11111222,11111222,99999999' 
WAVCIS,ioos:station:WAVCIS:CSI15:1,2009-04-01T14:00:00Z,28.8332,-90.8320,10.0,12.81,29.0,,'11111222,11111222,99999999' 
WAVCIS,ioos:station:WAVCIS:CSI15:1,2009-04-01T15:00:00Z,28.8332,-90.8320,10.0,11.83,21.0,,'11111222,11111222,99999999' 
WAVCIS,ioos:station:WAVCIS:CSI15:1,2009-04-01T16:00:00Z,28.8332,-90.8320,10.0,10.18,22.0,,'11111222,11111222,99999999' 
WAVCIS,ioos:station:WAVCIS:CSI15:1,2009-04-01T17:00:00Z,28.8332,-90.8320,10.0,9.45,36.0,,'11111222,11111222,99999999' 
WAVCIS,ioos:station:WAVCIS:CSI15:1,2009-04-01T18:00:00Z,28.8332,-90.8320,10.0,10.39,53.0,,'11111222,11111222,99999999' 
WAVCIS,ioos:station:WAVCIS:CSI15:1,2009-04-01T19:00:00Z,28.8332,-90.8320,10.0,10.64,68.0,,'11111222,11111222,99999999' 
WAVCIS,ioos:station:WAVCIS:CSI15:1,2009-04-01T20:00:00Z,28.8332,-90.8320,10.0,9.93,79.0,,'11111222,11111222,99999999' 
WAVCIS,ioos:station:WAVCIS:CSI15:1,2009-04-01T21:00:00Z,28.8332,-90.8320,10.0,6.749,65.0,,'11111222,11111222,99999999' 
WAVCIS,ioos:station:WAVCIS:CSI15:1,2009-04-01T22:00:00Z,28.8332,-90.8320,10.0,6.148,47.0,,'11111222,11111222,99999999' 
WAVCIS,ioos:station:WAVCIS:CSI15:1,2009-04-01T23:00:00Z,28.8332,-90.8320,10.0,6.868,73.0,,'11111222,11111222,99999999' 
WAVCIS,ioos:station:WAVCIS:CSI15:1,2009-04-02T00:00:00Z,28.8332,-90.8320,10.0,8.38,85.0,,'11111222,11111222,99999999' 
WAVCIS,ioos:station:WAVCIS:CSI15:1,2009-04-02T01:00:00Z,28.8332,-90.8320,10.0,7.67,90.0,,'11111222,11111222,99999999' 
WAVCIS,ioos:station:WAVCIS:CSI15:1,2009-04-02T02:00:00Z,28.8332,-90.8320,10.0,8.69,92.0,,'11111222,11111222,99999999' 
WAVCIS,ioos:station:WAVCIS:CSI15:1,2009-04-02T03:00:00Z,28.8332,-90.8320,10.0,11.04,102.0,,'11111222,11111222,99999999' 
WAVCIS,ioos:station:WAVCIS:CSI15:1,2009-04-02T04:00:00Z,28.8332,-90.8320,10.0,10.55,117.0,,'11111222,11111222,99999999' 
WAVCIS,ioos:station:WAVCIS:CSI15:1,2009-04-02T05:00:00Z,28.8332,-90.8320,10.0,8.51,123.0,,'11111222,11111222,99999999' 
WAVCIS,ioos:station:WAVCIS:CSI15:1,2009-04-02T06:00:00Z,28.8332,-90.8320,10.0,8.68,141.0,,'11111222,11111222,99999999' 
WAVCIS,ioos:station:WAVCIS:CSI15:1,2009-04-02T07:00:00Z,28.8332,-90.8320,10.0,4.135,144.0,,'11111222,11111222,99999999' 
WAVCIS,ioos:station:WAVCIS:CSI15:1,2009-04-02T08:00:00Z,28.8332,-90.8320,10.0,4.313,133.0,,'11111222,11111222,99999999' 
WAVCIS,ioos:station:WAVCIS:CSI15:1,2009-04-02T09:00:00Z,28.8332,-90.8320,10.0,1.036,172.0,,'11111222,11111222,99999999' 
WAVCIS,ioos:station:WAVCIS:CSI15:1,2009-04-02T10:00:00Z,28.8332,-90.8320,10.0,2.232,345.0,,'11111222,11111222,99999999' 
WAVCIS,ioos:station:WAVCIS:CSI15:1,2009-04-02T11:00:00Z,28.8332,-90.8320,10.0,5.905,297.0,,'11111222,11111222,99999999' 
WAVCIS,ioos:station:WAVCIS:CSI15:1,2009-04-02T12:00:00Z,28.8332,-90.8320,10.0,0.886,214.0,,'11111222,11111222,99999999' 
WAVCIS,ioos:station:WAVCIS:CSI15:1,2009-04-02T13:00:00Z,28.8332,-90.8320,10.0,5.289,110.0,,'11111222,11111222,99999999' 
WAVCIS,ioos:station:WAVCIS:CSI15:1,2009-04-02T14:00:00Z,28.8332,-90.8320,10.0,11.15,133.0,,'11111222,11111222,99999999' 
WAVCIS,ioos:station:WAVCIS:CSI15:1,2009-04-02T15:00:00Z,28.8332,-90.8320,10.0,13.43,129.0,,'11111222,11111222,99999999' 
WAVCIS,ioos:station:WAVCIS:CSI15:1,2009-04-02T16:00:00Z,28.8332,-90.8320,10.0,17.01,126.0,,'11111222,11111222,99999999' 
WAVCIS,ioos:station:WAVCIS:CSI15:1,2009-04-02T17:00:00Z,28.8332,-90.8320,10.0,12.48,147.0,,'11111222,11111222,99999999' 
WAVCIS,ioos:station:WAVCIS:CSI15:1,2009-04-02T18:00:00Z,28.8332,-90.8320,10.0,14.22,180.0,,'11111222,11111222,99999999' 
WAVCIS,ioos:station:WAVCIS:CSI15:1,2009-04-02T19:00:00Z,28.8332,-90.8320,10.0,15.2,194.0,,'11111222,11111222,99999999' 
WAVCIS,ioos:station:WAVCIS:CSI15:1,2009-04-02T20:00:00Z,28.8332,-90.8320,10.0,14.03,201.0,,'11111222,11111222,99999999' 
WAVCIS,ioos:station:WAVCIS:CSI15:1,2009-04-02T21:00:00Z,28.8332,-90.8320,10.0,14.41,211.0,,'11111222,11111222,99999999' 
WAVCIS,ioos:station:WAVCIS:CSI15:1,2009-04-02T22:00:00Z,28.8332,-90.8320,10.0,8.17,232.0,,'11111222,11111222,99999999' 
WAVCIS,ioos:station:WAVCIS:CSI15:1,2009-04-02T23:00:00Z,28.8332,-90.8320,10.0,12.48,245.0,,'11111222,11111222,99999999' 
WAVCIS,ioos:station:WAVCIS:CSI15:1,2009-04-03T00:00:00Z,28.8332,-90.8320,10.0,13.1,242.0,,'11111222,11111222,99999999' 
WAVCIS,ioos:station:WAVCIS:CSI15:1,2009-04-03T01:00:00Z,28.8332,-90.8320,10.0,13.12,246.0,,'11111222,11111222,99999999' 
WAVCIS,ioos:station:WAVCIS:CSI15:1,2009-04-03T02:00:00Z,28.8332,-90.8320,10.0,13.1,255.0,,'11111222,11111222,99999999' 
WAVCIS,ioos:station:WAVCIS:CSI15:1,2009-04-03T03:00:00Z,28.8332,-90.8320,10.0,12.36,259.0,,'11111222,11111222,99999999' 
WAVCIS,ioos:station:WAVCIS:CSI15:1,2009-04-03T04:00:00Z,28.8332,-90.8320,10.0,12.85,274.0,,'11111222,11111222,99999999' 
WAVCIS,ioos:station:WAVCIS:CSI15:1,2009-04-03T05:00:00Z,28.8332,-90.8320,10.0,14.47,284.0,,'11111222,11111222,99999999' 
WAVCIS,ioos:station:WAVCIS:CSI15:1,2009-04-03T06:00:00Z,28.8332,-90.8320,10.0,15.31,290.0,,'11111222,11111222,99999999' 
WAVCIS,ioos:station:WAVCIS:CSI15:1,2009-04-03T07:00:00Z,28.8332,-90.8320,10.0,14.43,292.0,,'11111222,11111222,99999999' 
WAVCIS,ioos:station:WAVCIS:CSI15:1,2009-04-03T08:00:00Z,28.8332,-90.8320,10.0,15.11,295.0,,'11111222,11111222,99999999' 
WAVCIS,ioos:station:WAVCIS:CSI15:1,2009-04-03T09:00:00Z,28.8332,-90.8320,10.0,15.05,309.0,,'11111222,11111222,99999999' 
WAVCIS,ioos:station:WAVCIS:CSI15:1,2009-04-03T10:00:00Z,28.8332,-90.8320,10.0,13.26,302.0,,'11111222,11111222,99999999' 
WAVCIS,ioos:station:WAVCIS:CSI15:1,2009-04-03T11:00:00Z,28.8332,-90.8320,10.0,12.58,307.0,,'11111222,11111222,99999999' 
WAVCIS,ioos:station:WAVCIS:CSI15:1,2009-04-03T12:00:00Z,28.8332,-90.8320,10.0,10.72,311.0,,'11111222,11111222,99999999' 
WAVCIS,ioos:station:WAVCIS:CSI15:1,2009-04-03T13:00:00Z,28.8332,-90.8320,10.0,8.08,322.0,,'11111222,11111222,99999999' 
WAVCIS,ioos:station:WAVCIS:CSI15:1,2009-04-03T14:00:00Z,28.8332,-90.8320,10.0,5.923,342.0,,'11111222,11111222,99999999' 
WAVCIS,ioos:station:WAVCIS:CSI15:1,2009-04-03T15:00:00Z,28.8332,-90.8320,10.0,5.182,350.0,,'11111222,11111222,99999999' 
WAVCIS,ioos:station:WAVCIS:CSI15:1,2009-04-03T16:00:00Z,28.8332,-90.8320,10.0,3.566,357.0,,'11111222,11111222,99999999' 
WAVCIS,ioos:station:WAVCIS:CSI15:1,2009-04-03T17:00:00Z,28.8332,-90.8320,10.0,2.539,349.0,,'11111222,11111222,99999999' 
WAVCIS,ioos:station:WAVCIS:CSI15:1,2009-04-03T18:00:00Z,28.8332,-90.8320,10.0,1.7,341.0,,'11111222,11111222,99999999' 
WAVCIS,ioos:station:WAVCIS:CSI15:1,2009-04-03T19:00:00Z,28.8332,-90.8320,10.0,0.891,246.0,,'11111222,11111222,99999999' 
WAVCIS,ioos:station:WAVCIS:CSI15:1,2009-04-03T20:00:00Z,28.8332,-90.8320,10.0,1.768,224.0,,'11111222,11111222,99999999' 
WAVCIS,ioos:station:WAVCIS:CSI15:1,2009-04-03T21:00:00Z,28.8332,-90.8320,10.0,3.016,259.0,,'11111222,11111222,99999999' 
WAVCIS,ioos:station:WAVCIS:CSI15:1,2009-04-03T22:00:00Z,28.8332,-90.8320,10.0,1.716,250.0,,'11111222,11111222,99999999' 
WAVCIS,ioos:station:WAVCIS:CSI15:1,2009-04-03T23:00:00Z,28.8332,-90.8320,10.0,2.58,236.0,,'11111222,11111222,99999999' 
WAVCIS,ioos:station:WAVCIS:CSI15:1,2009-04-04T00:00:00Z,28.8332,-90.8320,10.0,2.779,217.0,,'11111222,11111222,99999999' 
WAVCIS,ioos:station:WAVCIS:CSI15:1,2009-04-04T01:00:00Z,28.8332,-90.8320,10.0,2.625,204.0,,'11111222,11111222,99999999' 
WAVCIS,ioos:station:WAVCIS:CSI15:1,2009-04-04T02:00:00Z,28.8332,-90.8320,10.0,0.233,256.0,,'11111222,11111222,99999999' 
WAVCIS,ioos:station:WAVCIS:CSI15:1,2009-04-04T03:00:00Z,28.8332,-90.8320,10.0,0.785,102.0,,'11111222,11111222,99999999' 
WAVCIS,ioos:station:WAVCIS:CSI15:1,2009-04-04T04:00:00Z,28.8332,-90.8320,10.0,2.527,103.0,,'11111222,11111222,99999999' 
WAVCIS,ioos:station:WAVCIS:CSI15:1,2009-04-04T05:00:00Z,28.8332,-90.8320,10.0,3.357,78.0,,'11111222,11111222,99999999' 
WAVCIS,ioos:station:WAVCIS:CSI15:1,2009-04-04T06:00:00Z,28.8332,-90.8320,10.0,4.09,92.0,,'11111222,11111222,99999999' 
WAVCIS,ioos:station:WAVCIS:CSI15:1,2009-04-04T07:00:00Z,28.8332,-90.8320,10.0,4.088,113.0,,'11111222,11111222,99999999' 
WAVCIS,ioos:station:WAVCIS:CSI15:1,2009-04-04T08:00:00Z,28.8332,-90.8320,10.0,4.135,109.0,,'11111222,11111222,99999999' 
WAVCIS,ioos:station:WAVCIS:CSI15:1,2009-04-04T09:00:00Z,28.8332,-90.8320,10.0,4.889,108.0,,'11111222,11111222,99999999' 
WAVCIS,ioos:station:WAVCIS:CSI15:1,2009-04-04T10:00:00Z,28.8332,-90.8320,10.0,6.889,109.0,,'11111222,11111222,99999999' 
WAVCIS,ioos:station:WAVCIS:CSI15:1,2009-04-04T11:00:00Z,28.8332,-90.8320,10.0,7.52,108.0,,'11111222,11111222,99999999' 
WAVCIS,ioos:station:WAVCIS:CSI15:1,2009-04-04T12:00:00Z,28.8332,-90.8320,10.0,7.84,111.0,,'11111222,11111222,99999999' 
WAVCIS,ioos:station:WAVCIS:CSI15:1,2009-04-04T13:00:00Z,28.8332,-90.8320,10.0,7.13,104.0,,'11111222,11111222,99999999' 
WAVCIS,ioos:station:WAVCIS:CSI15:1,2009-04-04T14:00:00Z,28.8332,-90.8320,10.0,7.35,107.0,,'11111222,11111222,99999999' 
WAVCIS,ioos:station:WAVCIS:CSI15:1,2009-04-04T15:00:00Z,28.8332,-90.8320,10.0,8.04,104.0,,'11111222,11111222,99999999' 
WAVCIS,ioos:station:WAVCIS:CSI15:1,2009-04-04T16:00:00Z,28.8332,-90.8320,10.0,8.98,104.0,,'11111222,11111222,99999999' 
WAVCIS,ioos:station:WAVCIS:CSI15:1,2009-04-04T17:00:00Z,28.8332,-90.8320,10.0,8.96,101.0,,'11111222,11111222,99999999' 
WAVCIS,ioos:station:WAVCIS:CSI15:1,2009-04-04T18:00:00Z,28.8332,-90.8320,10.0,10.37,102.0,,'11111222,11111222,99999999' 
WAVCIS,ioos:station:WAVCIS:CSI15:1,2009-04-04T19:00:00Z,28.8332,-90.8320,10.0,11.03,103.0,,'11111222,11111222,99999999' 
WAVCIS,ioos:station:WAVCIS:CSI15:1,2009-04-04T20:00:00Z,28.8332,-90.8320,10.0,9.91,95.0,,'11111222,11111222,99999999' 
WAVCIS,ioos:station:WAVCIS:CSI15:1,2009-04-04T21:00:00Z,28.8332,-90.8320,10.0,8.47,97.0,,'11111222,11111222,99999999' 
WAVCIS,ioos:station:WAVCIS:CSI15:1,2009-04-04T22:00:00Z,28.8332,-90.8320,10.0,8.81,90.0,,'11111222,11111222,99999999' 
WAVCIS,ioos:station:WAVCIS:CSI15:1,2009-04-04T23:00:00Z,28.8332,-90.8320,10.0,8.78,92.0,,'11111222,11111222,99999999' 
WAVCIS,ioos:station:WAVCIS:CSI15:1,2009-04-05T00:00:00Z,28.8332,-90.8320,10.0,8.23,92.0,,'11111222,11111222,99999999' 
WAVCIS,ioos:station:WAVCIS:CSI15:1,2009-04-05T01:00:00Z,28.8332,-90.8320,10.0,8.48,96.0,,'11111222,11111222,99999999' 
WAVCIS,ioos:station:WAVCIS:CSI15:1,2009-04-05T02:00:00Z,28.8332,-90.8320,10.0,8.12,89.0,,'11111222,11111222,99999999' 
WAVCIS,ioos:station:WAVCIS:CSI15:1,2009-04-05T03:00:00Z,28.8332,-90.8320,10.0,7.85,90.0,,'11111222,11111222,99999999' 
WAVCIS,ioos:station:WAVCIS:CSI15:1,2009-04-05T04:00:00Z,28.8332,-90.8320,10.0,8.36,97.0,,'11111222,11111222,99999999' 
WAVCIS,ioos:station:WAVCIS:CSI15:1,2009-04-05T05:00:00Z,28.8332,-90.8320,10.0,9.33,111.0,,'11111222,11111222,99999999' 
WAVCIS,ioos:station:WAVCIS:CSI15:1,2009-04-05T06:00:00Z,28.8332,-90.8320,10.0,8.05,118.0,,'11111222,11111222,99999999' 
WAVCIS,ioos:station:WAVCIS:CSI15:1,2009-04-05T07:00:00Z,28.8332,-90.8320,10.0,8.66,130.0,,'11111222,11111222,99999999' 
WAVCIS,ioos:station:WAVCIS:CSI15:1,2009-04-05T08:00:00Z,28.8332,-90.8320,10.0,7.19,141.0,,'11111222,11111222,99999999' 
WAVCIS,ioos:station:WAVCIS:CSI15:1,2009-04-05T09:00:00Z,28.8332,-90.8320,10.0,5.743,152.0,,'11111222,11111222,99999999' 
WAVCIS,ioos:station:WAVCIS:CSI15:1,2009-04-05T10:00:00Z,28.8332,-90.8320,10.0,5.659,170.0,,'11111222,11111222,99999999' 
WAVCIS,ioos:station:WAVCIS:CSI15:1,2009-04-05T11:00:00Z,28.8332,-90.8320,10.0,6.135,170.0,,'11111222,11111222,99999999' 
WAVCIS,ioos:station:WAVCIS:CSI15:1,2009-04-05T12:00:00Z,28.8332,-90.8320,10.0,4.777,177.0,,'11111222,11111222,99999999' 
WAVCIS,ioos:station:WAVCIS:CSI15:1,2009-04-05T13:00:00Z,28.8332,-90.8320,10.0,4.604,178.0,,'11111222,11111222,99999999' 
WAVCIS,ioos:station:WAVCIS:CSI15:1,2009-04-05T14:00:00Z,28.8332,-90.8320,10.0,3.196,186.0,,'11111222,11111222,99999999' 
WAVCIS,ioos:station:WAVCIS:CSI15:1,2009-04-05T15:00:00Z,28.8332,-90.8320,10.0,4.081,160.0,,'11111222,11111222,99999999' 
WAVCIS,ioos:station:WAVCIS:CSI15:1,2009-04-05T16:00:00Z,28.8332,-90.8320,10.0,2.856,182.0,,'11111222,11111222,99999999' 
WAVCIS,ioos:station:WAVCIS:CSI15:1,2009-04-05T17:00:00Z,28.8332,-90.8320,10.0,4.877,246.0,,'11111222,11111222,99999999' 
WAVCIS,ioos:station:WAVCIS:CSI15:1,2009-04-05T18:00:00Z,28.8332,-90.8320,10.0,7.33,269.0,,'11111222,11111222,99999999' 
WAVCIS,ioos:station:WAVCIS:CSI15:1,2009-04-05T19:00:00Z,28.8332,-90.8320,10.0,6.551,282.0,,'11111222,11111222,99999999' 
WAVCIS,ioos:station:WAVCIS:CSI15:1,2009-04-05T20:00:00Z,28.8332,-90.8320,10.0,5.392,256.0,,'11111222,11111222,99999999' 
WAVCIS,ioos:station:WAVCIS:CSI15:1,2009-04-05T21:00:00Z,28.8332,-90.8320,10.0,5.895,252.0,,'11111222,11111222,99999999' 
WAVCIS,ioos:station:WAVCIS:CSI15:1,2009-04-05T22:00:00Z,28.8332,-90.8320,10.0,5.297,218.0,,'11111222,11111222,99999999' 
WAVCIS,ioos:station:WAVCIS:CSI15:1,2009-04-05T23:00:00Z,28.8332,-90.8320,10.0,6.175,227.0,,'11111222,11111222,99999999' 
WAVCIS,ioos:station:WAVCIS:CSI15:1,2009-04-06T00:00:00Z,28.8332,-90.8320,10.0,5.653,230.0,,'11111222,11111222,99999999' 
WAVCIS,ioos:station:WAVCIS:CSI15:1,2009-04-06T01:00:00Z,28.8332,-90.8320,10.0,6.509,234.0,,'11111222,11111222,99999999' 
WAVCIS,ioos:station:WAVCIS:CSI15:1,2009-04-06T02:00:00Z,28.8332,-90.8320,10.0,8.48,251.0,,'11111222,11111222,99999999' 
WAVCIS,ioos:station:WAVCIS:CSI15:1,2009-04-06T03:00:00Z,28.8332,-90.8320,10.0,9.62,260.0,,'11111222,11111222,99999999' 
WAVCIS,ioos:station:WAVCIS:CSI15:1,2009-04-06T04:00:00Z,28.8332,-90.8320,10.0,11.88,293.0,,'11111222,11111222,99999999' 
WAVCIS,ioos:station:WAVCIS:CSI15:1,2009-04-06T05:00:00Z,28.8332,-90.8320,10.0,15.3,303.0,,'11111222,11111222,99999999' 
WAVCIS,ioos:station:WAVCIS:CSI15:1,2009-04-06T06:00:00Z,28.8332,-90.8320,10.0,17.13,299.0,,'11111222,11111222,99999999' 
WAVCIS,ioos:station:WAVCIS:CSI15:1,2009-04-06T07:00:00Z,28.8332,-90.8320,10.0,16.88,305.0,,'11111222,11111222,99999999' 
WAVCIS,ioos:station:WAVCIS:CSI15:1,2009-04-06T08:00:00Z,28.8332,-90.8320,10.0,18.46,308.0,,'11111222,11111222,99999999' 
WAVCIS,ioos:station:WAVCIS:CSI15:1,2009-04-06T09:00:00Z,28.8332,-90.8320,10.0,18.56,305.0,,'11111222,11111222,99999999' 
WAVCIS,ioos:station:WAVCIS:CSI15:1,2009-04-06T10:00:00Z,28.8332,-90.8320,10.0,17.4,304.0,,'11111222,11111222,99999999' 
WAVCIS,ioos:station:WAVCIS:CSI15:1,2009-04-06T11:00:00Z,28.8332,-90.8320,10.0,15.07,309.0,,'11111222,11111222,99999999' 
WAVCIS,ioos:station:WAVCIS:CSI15:1,2009-04-06T12:00:00Z,28.8332,-90.8320,10.0,15.31,308.0,,'11111222,11111222,99999999' 
WAVCIS,ioos:station:WAVCIS:CSI15:1,2009-04-06T13:00:00Z,28.8332,-90.8320,10.0,16.25,314.0,,'11111222,11111222,99999999' 
WAVCIS,ioos:station:WAVCIS:CSI15:1,2009-04-06T14:00:00Z,28.8332,-90.8320,10.0,15.09,317.0,,'11111222,11111222,99999999' 
WAVCIS,ioos:station:WAVCIS:CSI15:1,2009-04-06T15:00:00Z,28.8332,-90.8320,10.0,13.85,316.0,,'11111222,11111222,99999999' 
WAVCIS,ioos:station:WAVCIS:CSI15:1,2009-04-06T16:00:00Z,28.8332,-90.8320,10.0,10.51,304.0,,'11111222,11111222,99999999' 
WAVCIS,ioos:station:WAVCIS:CSI15:1,2009-04-06T17:00:00Z,28.8332,-90.8320,10.0,11.97,294.0,,'11111222,11111222,99999999' 
WAVCIS,ioos:station:WAVCIS:CSI15:1,2009-04-06T18:00:00Z,28.8332,-90.8320,10.0,11.52,290.0,,'11111222,11111222,99999999' 
WAVCIS,ioos:station:WAVCIS:CSI15:1,2009-04-06T19:00:00Z,28.8332,-90.8320,10.0,11.66,294.0,,'11111222,11111222,99999999' 
WAVCIS,ioos:station:WAVCIS:CSI15:1,2009-04-06T20:00:00Z,28.8332,-90.8320,10.0,13.05,285.0,,'11111222,11111222,99999999' 
WAVCIS,ioos:station:WAVCIS:CSI15:1,2009-04-06T21:00:00Z,28.8332,-90.8320,10.0,13.6,286.0,,'11111222,11111222,99999999' 
WAVCIS,ioos:station:WAVCIS:CSI15:1,2009-04-06T22:00:00Z,28.8332,-90.8320,10.0,14.57,283.0,,'11111222,11111222,99999999' 
WAVCIS,ioos:station:WAVCIS:CSI15:1,2009-04-06T23:00:00Z,28.8332,-90.8320,10.0,13.48,285.0,,'11111222,11111222,99999999' 
WAVCIS,ioos:station:WAVCIS:CSI15:1,2009-04-07T00:00:00Z,28.8332,-90.8320,10.0,12.85,283.0,,'11111222,11111222,99999999' 
WAVCIS,ioos:station:WAVCIS:CSI15:1,2009-04-07T01:00:00Z,28.8332,-90.8320,10.0,12.49,285.0,,'11111222,11111222,99999999' 
WAVCIS,ioos:station:WAVCIS:CSI15:1,2009-04-07T02:00:00Z,28.8332,-90.8320,10.0,14.23,289.0,,'11111222,11111222,99999999' 
WAVCIS,ioos:station:WAVCIS:CSI15:1,2009-04-07T03:00:00Z,28.8332,-90.8320,10.0,16.49,300.0,,'11111222,11111222,99999999' 
WAVCIS,ioos:station:WAVCIS:CSI15:1,2009-04-07T04:00:00Z,28.8332,-90.8320,10.0,16.87,297.0,,'11111222,11111222,99999999' 
WAVCIS,ioos:station:WAVCIS:CSI15:1,2009-04-07T05:00:00Z,28.8332,-90.8320,10.0,17.91,301.0,,'11111222,11111222,99999999' 
WAVCIS,ioos:station:WAVCIS:CSI15:1,2009-04-07T06:00:00Z,28.8332,-90.8320,10.0,17.3,302.0,,'11111222,11111222,99999999' 
WAVCIS,ioos:station:WAVCIS:CSI15:1,2009-04-07T07:00:00Z,28.8332,-90.8320,10.0,15.47,300.0,,'11111222,11111222,99999999' 
WAVCIS,ioos:station:WAVCIS:CSI15:1,2009-04-07T08:00:00Z,28.8332,-90.8320,10.0,14.46,309.0,,'11111222,11111222,99999999' 
WAVCIS,ioos:station:WAVCIS:CSI15:1,2009-04-07T09:00:00Z,28.8332,-90.8320,10.0,15.59,312.0,,'11111222,11111222,99999999' 
WAVCIS,ioos:station:WAVCIS:CSI15:1,2009-04-07T10:00:00Z,28.8332,-90.8320,10.0,15.18,310.0,,'11111222,11111222,99999999' 
WAVCIS,ioos:station:WAVCIS:CSI15:1,2009-04-07T11:00:00Z,28.8332,-90.8320,10.0,14.68,310.0,,'11111222,11111222,99999999' 
WAVCIS,ioos:station:WAVCIS:CSI15:1,2009-04-07T12:00:00Z,28.8332,-90.8320,10.0,14.36,314.0,,'11111222,11111222,99999999' 
WAVCIS,ioos:station:WAVCIS:CSI15:1,2009-04-07T13:00:00Z,28.8332,-90.8320,10.0,12.51,317.0,,'11111222,11111222,99999999' 
WAVCIS,ioos:station:WAVCIS:CSI15:1,2009-04-07T14:00:00Z,28.8332,-90.8320,10.0,10.93,315.0,,'11111222,11111222,99999999' 
WAVCIS,ioos:station:WAVCIS:CSI15:1,2009-04-07T15:00:00Z,28.8332,-90.8320,10.0,11.3,309.0,,'11111222,11111222,99999999' 
WAVCIS,ioos:station:WAVCIS:CSI15:1,2009-04-07T16:00:00Z,28.8332,-90.8320,10.0,8.65,304.0,,'11111222,11111222,99999999' 
WAVCIS,ioos:station:WAVCIS:CSI15:1,2009-04-07T17:00:00Z,28.8332,-90.8320,10.0,8.1,293.0,,'11111222,11111222,99999999' 
WAVCIS,ioos:station:WAVCIS:CSI15:1,2009-04-07T18:00:00Z,28.8332,-90.8320,10.0,6.219,282.0,,'11111222,11111222,99999999' 
WAVCIS,ioos:station:WAVCIS:CSI15:1,2009-04-07T19:00:00Z,28.8332,-90.8320,10.0,7.74,272.0,,'11111222,11111222,99999999' 
WAVCIS,ioos:station:WAVCIS:CSI15:1,2009-04-07T20:00:00Z,28.8332,-90.8320,10.0,9.22,272.0,,'11111222,11111222,99999999' 
WAVCIS,ioos:station:WAVCIS:CSI15:1,2009-04-07T21:00:00Z,28.8332,-90.8320,10.0,10.05,261.0,,'11111222,11111222,99999999' 
WAVCIS,ioos:station:WAVCIS:CSI15:1,2009-04-07T22:00:00Z,28.8332,-90.8320,10.0,10.32,266.0,,'11111222,11111222,99999999' 
WAVCIS,ioos:station:WAVCIS:CSI15:1,2009-04-07T23:00:00Z,28.8332,-90.8320,10.0,9.1,264.0,,'11111222,11111222,99999999' 
WAVCIS,ioos:station:WAVCIS:CSI15:1,2009-04-08T00:00:00Z,28.8332,-90.8320,10.0,8.8,272.0,,'11111222,11111222,99999999' 
WAVCIS,ioos:station:WAVCIS:CSI15:1,2009-04-08T01:00:00Z,28.8332,-90.8320,10.0,9.46,262.0,,'11111222,11111222,99999999' 
WAVCIS,ioos:station:WAVCIS:CSI15:1,2009-04-08T02:00:00Z,28.8332,-90.8320,10.0,7.74,264.0,,'11111222,11111222,99999999' 
WAVCIS,ioos:station:WAVCIS:CSI15:1,2009-04-08T03:00:00Z,28.8332,-90.8320,10.0,6.563,263.0,,'11111222,11111222,99999999' 
WAVCIS,ioos:station:WAVCIS:CSI15:1,2009-04-08T04:00:00Z,28.8332,-90.8320,10.0,5.894,256.0,,'11111222,11111222,99999999' 
WAVCIS,ioos:station:WAVCIS:CSI15:1,2009-04-08T05:00:00Z,28.8332,-90.8320,10.0,4.729,235.0,,'11111222,11111222,99999999' 
WAVCIS,ioos:station:WAVCIS:CSI15:1,2009-04-08T06:00:00Z,28.8332,-90.8320,10.0,4.92,242.0,,'11111222,11111222,99999999' 
WAVCIS,ioos:station:WAVCIS:CSI15:1,2009-04-08T07:00:00Z,28.8332,-90.8320,10.0,5.398,237.0,,'11111222,11111222,99999999' 
WAVCIS,ioos:station:WAVCIS:CSI15:1,2009-04-08T08:00:00Z,28.8332,-90.8320,10.0,5.807,255.0,,'11111222,11111222,99999999' 
WAVCIS,ioos:station:WAVCIS:CSI15:1,2009-04-08T09:00:00Z,28.8332,-90.8320,10.0,5.491,251.0,,'11111222,11111222,99999999' 
WAVCIS,ioos:station:WAVCIS:CSI15:1,2009-04-08T10:00:00Z,28.8332,-90.8320,10.0,3.246,248.0,,'11111222,11111222,99999999' 
WAVCIS,ioos:station:WAVCIS:CSI15:1,2009-04-08T11:00:00Z,28.8332,-90.8320,10.0,4.02,219.0,,'11111222,11111222,99999999' 
WAVCIS,ioos:station:WAVCIS:CSI15:1,2009-04-08T12:00:00Z,28.8332,-90.8320,10.0,4.722,211.0,,'11111222,11111222,99999999' 
WAVCIS,ioos:station:WAVCIS:CSI15:1,2009-04-08T13:00:00Z,28.8332,-90.8320,10.0,4.818,202.0,,'11111222,11111222,99999999' 
WAVCIS,ioos:station:WAVCIS:CSI15:1,2009-04-08T14:00:00Z,28.8332,-90.8320,10.0,4.677,193.0,,'11111222,11111222,99999999' 
WAVCIS,ioos:station:WAVCIS:CSI15:1,2009-04-08T15:00:00Z,28.8332,-90.8320,10.0,3.694,196.0,,'11111222,11111222,99999999' 
WAVCIS,ioos:station:WAVCIS:CSI15:1,2009-04-08T16:00:00Z,28.8332,-90.8320,10.0,4.957,198.0,,'11111222,11111222,99999999' 
WAVCIS,ioos:station:WAVCIS:CSI15:1,2009-04-08T17:00:00Z,28.8332,-90.8320,10.0,6.503,190.0,,'11111222,11111222,99999999' 
WAVCIS,ioos:station:WAVCIS:CSI15:1,2009-04-08T18:00:00Z,28.8332,-90.8320,10.0,6.862,188.0,,'11111222,11111222,99999999' 
WAVCIS,ioos:station:WAVCIS:CSI15:1,2009-04-08T19:00:00Z,28.8332,-90.8320,10.0,6.813,203.0,,'11111222,11111222,99999999' 
WAVCIS,ioos:station:WAVCIS:CSI15:1,2009-04-08T20:00:00Z,28.8332,-90.8320,10.0,7.21,206.0,,'11111222,11111222,99999999' 
WAVCIS,ioos:station:WAVCIS:CSI15:1,2009-04-08T21:00:00Z,28.8332,-90.8320,10.0,7.48,207.0,,'11111222,11111222,99999999' 
WAVCIS,ioos:station:WAVCIS:CSI15:1,2009-04-08T22:00:00Z,28.8332,-90.8320,10.0,7.57,208.0,,'11111222,11111222,99999999' 
WAVCIS,ioos:station:WAVCIS:CSI15:1,2009-04-08T23:00:00Z,28.8332,-90.8320,10.0,6.328,202.0,,'11111222,11111222,99999999' 
WAVCIS,ioos:station:WAVCIS:CSI15:1,2009-04-09T00:00:00Z,28.8332,-90.8320,10.0,7.48,200.0,,'11111222,11111222,99999999' 
WAVCIS,ioos:station:WAVCIS:CSI15:1,2009-04-09T01:00:00Z,28.8332,-90.8320,10.0,7.49,193.0,,'11111222,11111222,99999999' 
WAVCIS,ioos:station:WAVCIS:CSI15:1,2009-04-09T02:00:00Z,28.8332,-90.8320,10.0,8.8,187.0,,'11111222,11111222,99999999' 
WAVCIS,ioos:station:WAVCIS:CSI15:1,2009-04-09T03:00:00Z,28.8332,-90.8320,10.0,9.51,187.0,,'11111222,11111222,99999999' 
WAVCIS,ioos:station:WAVCIS:CSI15:1,2009-04-09T04:00:00Z,28.8332,-90.8320,10.0,9.41,180.0,,'11111222,11111222,99999999' 
WAVCIS,ioos:station:WAVCIS:CSI15:1,2009-04-09T05:00:00Z,28.8332,-90.8320,10.0,9.28,185.0,,'11111222,11111222,99999999' 